Tracking 28790 objects as of 19-Apr-2024
HD Live streaming from Space Station
objects crossing your sky now

STARLINK-6304

Track STARLINK-6304 now!
10-day predictions
STARLINK-6304 is classified as:


NORAD ID: 56778
Int'l Code: 2023-078M
Perigee: 577.6 km
Apogee: 580.7 km
Inclination: 70.0 °
Period: 96.1 minutes
Semi major axis: 6950 km
RCS: Unknown
Launch date: May 31, 2023
Source: United States (US)
Launch site: AIR FORCE WESTERN TEST RANGE (AFWTR)
Your satellite tracking list
Your tracking list is empty




NASA's NSSDC Master Catalog

Two Line Element Set (TLE):
1 56778U 23078M   24110.55324357 -.00000984  00000-0 -74677-4 0  9993
2 56778  70.0033 262.1717 0002198 226.6238 133.4738 14.98349765 50205
Source of the keplerian elements: AFSPC